Weather History for Ft Lauderdale, FL

Change the Weather History Date:

Friday, September 14, 2012

  Actual Average Record
Temperature  
Mean Temperature 82 °F 83 °F  
Max Temperature 88 °F 89 °F 98 °F (1977)
Min Temperature 76 °F 78 °F 68 °F (1976)
Degree Days  
Heating Degree Days 0 0  
Month to date heating degree days 0 0  
Since 1 July heating degree days 0 0  
Cooling Degree Days 17 18  
Month to date cooling degree days 254 258  
Year to date cooling degree days 3443 3424  
Growing Degree Days 32 (Base 50)    
Moisture  
Dew Point 74 °F    
Average Humidity 83    
Maximum Humidity 97    
Minimum Humidity 68    
Precipitation  
Precipitation 0.34 in 0.29 in 1.45 in (2010)
Month to date precipitation 2.05 3.92  
Year to date precipitation 45.38 44.99  
Snow  
Snow 0.00 in - - ()
Month to date snowfall 0.0  
Since 1 July snowfall 0.0  
Since 1 September snowfall 0.0  
Snow Depth 0.00 in    
Sea Level Pressure  
Sea Level Pressure 29.99 in    
Wind  
Wind Speed 8 mph (East)    
Max Wind Speed 24 mph    
Max Gust Speed 29 mph    
Visibility 10 miles    
Events Rain    
T = Trace of Precipitation, MM = Missing Value Source: NWS Daily Summary

Daily Weather History Graph

Daily Weather History Graph

Search for Another Location

Airport:

Trip Planner

Search our weather history database for the weather conditions in past years. The results will help you decide how hot, cold, wet, or windy it might be!

Date:

Astronomy

Sep. 14, 2012 Rise Set
Actual Time 7:06 AM EDT 7:25 PM EDT
Civil Twilight 6:43 AM EDT 7:48 PM EDT
Nautical Twilight 6:16 AM EDT 8:15 PM EDT
Astronomical Twilight 5:48 AM EDT 8:42 PM EDT
Moon 5:33 AM EDT (9/14) 6:19 PM EDT (9/14)
Length of Visible Light 13h 05m
Length of Day
12h 19m
Waning Crescent, 3% of the Moon is Illuminated
Sep 14
Waning Crescent
Sep 15
New
Sep 22
First Quarter
Sep 29
Full
Oct 8
Last Quarter

Hourly Weather History & Observations

Time (EDT) Temp. Heat Index Dew Point Humidity Pressure Visibility Wind Dir Wind Speed Gust Speed Precip Events Conditions
12:53 AM 81.0 °F 85.8 °F 73.0 °F 77% 30.02 in 10.0 mi ENE 8.1 mph - N/A   Scattered Clouds
1:53 AM 81.0 °F 85.8 °F 73.0 °F 77% 30.01 in 10.0 mi East 5.8 mph - N/A   Partly Cloudy
2:53 AM 81.0 °F 86.2 °F 73.9 °F 79% 29.99 in 10.0 mi ENE 6.9 mph - N/A   Partly Cloudy
3:53 AM 81.0 °F 85.8 °F 73.0 °F 77% 29.97 in 10.0 mi ENE 6.9 mph - N/A   Partly Cloudy
4:53 AM 81.0 °F 86.2 °F 73.9 °F 79% 29.97 in 10.0 mi East 4.6 mph - N/A   Scattered Clouds
5:53 AM 81.0 °F 85.8 °F 73.0 °F 77% 29.97 in 10.0 mi ENE 4.6 mph - N/A   Partly Cloudy
6:46 AM 78.8 °F - 73.4 °F 83% 29.97 in 10.0 mi Calm Calm - N/A   Mostly Cloudy
6:53 AM 77.0 °F - 73.9 °F 90% 29.97 in 10.0 mi Calm Calm - N/A   Mostly Cloudy
7:53 AM 81.0 °F 85.8 °F 73.0 °F 77% 29.99 in 10.0 mi East 8.1 mph - N/A   Mostly Cloudy
8:53 AM 84.0 °F 91.2 °F 73.9 °F 72% 30.00 in 10.0 mi East 11.5 mph - N/A   Partly Cloudy
9:53 AM 84.9 °F 93.3 °F 75.0 °F 72% 30.00 in 10.0 mi East 12.7 mph - N/A   Mostly Cloudy
10:53 AM 86.0 °F 95.1 °F 75.0 °F 70% 30.01 in 10.0 mi ESE 13.8 mph - 0.00 in   Scattered Clouds
11:53 AM 87.1 °F 97.3 °F 75.9 °F 69% 30.01 in 10.0 mi ESE 15.0 mph - N/A   Scattered Clouds
12:53 PM 87.1 °F 96.3 °F 75.0 °F 67% 30.00 in 10.0 mi ESE 15.0 mph - N/A   Scattered Clouds
1:53 PM 88.0 °F 97.5 °F 75.0 °F 65% 29.99 in 10.0 mi ESE 11.5 mph 21.9 mph N/A   Mostly Cloudy
2:01 PM 82.4 °F 89.5 °F 75.2 °F 79% 29.99 in 1.5 mi East 17.3 mph 28.8 mph 0.09 in Rain Rain
2:03 PM 80.6 °F 85.4 °F 73.4 °F 79% 29.99 in 5.0 mi ESE 8.1 mph 28.8 mph 0.16 in Rain Heavy Rain
2:53 PM 86.0 °F 99.3 °F 79.0 °F 79% 29.98 in 10.0 mi ESE 13.8 mph - 0.16 in   Mostly Cloudy
3:53 PM 84.0 °F 91.9 °F 75.0 °F 74% 29.96 in 10.0 mi ESE 13.8 mph - N/A   Scattered Clouds
4:53 PM 86.0 °F 95.1 °F 75.0 °F 70% 29.96 in 10.0 mi East 11.5 mph - N/A   Scattered Clouds
5:53 PM 81.0 °F 85.8 °F 73.0 °F 77% 29.96 in 10.0 mi ESE 4.6 mph - 0.02 in Rain Light Rain
6:53 PM 82.0 °F 87.4 °F 73.0 °F 74% 29.98 in 10.0 mi East 9.2 mph - N/A   Scattered Clouds
7:53 PM 82.0 °F 87.9 °F 73.9 °F 76% 29.99 in 10.0 mi East 8.1 mph - N/A   Mostly Cloudy
8:53 PM 81.0 °F 86.2 °F 73.9 °F 79% 30.00 in 10.0 mi ESE 6.9 mph - N/A   Mostly Cloudy
9:53 PM 79.0 °F - 73.0 °F 82% 30.01 in 10.0 mi NE 12.7 mph 21.9 mph N/A   Overcast
10:53 PM 75.9 °F - 73.9 °F 94% 30.01 in 10.0 mi NNE 5.8 mph - 0.16 in Rain Light Rain
11:53 PM 78.1 °F - 77.0 °F 96% 30.01 in 10.0 mi Calm Calm - 0.00 in   Scattered Clouds